Weather History for KVWU - February, 2013

Change the Weather History Date:

Tuesday, February 5, 2013

  Actual Average (KBDE) Record (KBDE)
Temperature  
Mean Temperature 4 °F -  
Max Temperature 12 °F 17 °F 45 °F (1990)
Min Temperature -4 °F -5 °F -40 °F (1936)
Degree Days  
Heating Degree Days 61    
Moisture  
Dew Point 2 °F    
Average Humidity 80    
Maximum Humidity 100    
Minimum Humidity 67    
Precipitation  
Precipitation 0.00 in - - ()
Sea Level Pressure  
Sea Level Pressure 29.85 in    
Wind  
Wind Speed 3 mph (West)    
Max Wind Speed 9 mph    
Max Gust Speed -    
Visibility 9 miles    
Events Snow    
Averages and records for this station are not official NWS values.
T = Trace of Precipitation, MM = Missing Value Source: NWS Daily Summary

Daily Weather History Graph

Daily Weather History Graph

Search for Another Location

Airport or City:

Trip Planner

Search our weather history database for the weather conditions in past years. The results will help you decide how hot, cold, wet, or windy it might be!

Date:

Astronomy

Feb. 05, 2013 Rise Set
Actual Time 7:40 AM CST 5:24 PM CST
Civil Twilight 7:07 AM CST 5:57 PM CST
Nautical Twilight 6:30 AM CST 6:34 PM CST
Astronomical Twilight 5:53 AM CST 7:11 PM CST
Moon 3:31 AM CST 12:33 PM CST
Length of Visible Light 10h 50m
Length of Day
9h 44m
Waning Crescent, 26% of the Moon is Illuminated
Feb 5
Waning Crescent
Feb 10
New
Feb 17
First Quarter
Feb 25
Full
Mar 4
Last Quarter

Hourly Weather History & Observations

Time (CST) Temp. Windchill Dew Point Humidity Pressure Visibility Wind Dir Wind Speed Gust Speed Precip Events Conditions
12:33 AM 12.2 °F 6.1 °F 10.4 °F 92% 29.54 in 2.5 mi ESE 3.5 mph - N/A Snow Light Snow
12:53 AM 12.2 °F - 10.4 °F 92% 29.54 in 2.5 mi Calm Calm - N/A Snow Light Snow
1:14 AM 12.2 °F - 10.4 °F 92% 29.54 in 1.2 mi Calm Calm - N/A Snow Light Snow
1:33 AM 12.2 °F - 10.4 °F 92% 29.55 in 1.2 mi Calm Calm - N/A Snow Light Snow
1:53 AM 12.2 °F - 10.4 °F 92% 29.56 in 5.0 mi Calm Calm - N/A Snow Light Snow
2:14 AM 12.2 °F 6.1 °F 10.4 °F 92% 29.57 in 4.0 mi NNE 3.5 mph - N/A Snow Light Snow
2:33 AM 12.2 °F 4.3 °F 10.4 °F 92% 29.57 in 10.0 mi NNE 4.6 mph - N/A   Overcast
2:53 AM 12.2 °F 2.9 °F 10.4 °F 92% 29.58 in 10.0 mi NNE 5.8 mph - N/A   Overcast
3:14 AM 10.4 °F 0.8 °F 10.4 °F 100% 29.59 in 10.0 mi North 5.8 mph - N/A   Overcast
3:33 AM 10.4 °F - 8.6 °F 92% 29.59 in 10.0 mi Calm Calm - N/A   Overcast
3:54 AM 10.4 °F - 8.6 °F 92% 29.61 in 10.0 mi Calm Calm - N/A   Mostly Cloudy
4:13 AM 8.6 °F - 6.8 °F 92% 29.62 in 10.0 mi Calm Calm - N/A Snow Light Snow
4:33 AM 6.8 °F -0.1 °F 5.0 °F 92% 29.64 in 4.0 mi NNW 3.5 mph - N/A Snow Light Snow
4:54 AM 6.8 °F -2.0 °F 3.2 °F 85% 29.66 in 3.0 mi NNW 4.6 mph - N/A Snow Light Snow
5:13 AM 6.8 °F -3.5 °F 3.2 °F 85% 29.68 in 5.0 mi North 5.8 mph - N/A Snow Light Snow
5:33 AM 5.0 °F - 1.4 °F 85% 29.69 in 5.0 mi Calm Calm - N/A Snow Light Snow
5:54 AM 3.2 °F - 1.4 °F 92% 29.71 in 7.0 mi Calm Calm - N/A Snow Light Snow
6:13 AM 3.2 °F -4.2 °F -0.4 °F 85% 29.72 in 7.0 mi North 3.5 mph - N/A Snow Light Snow
6:33 AM 1.4 °F -9.9 °F -0.4 °F 92% 29.73 in 10.0 mi North 5.8 mph - N/A   Scattered Clouds
6:54 AM 1.4 °F -6.2 °F -2.2 °F 85% 29.75 in 10.0 mi NNW 3.5 mph - N/A   Clear
7:13 AM -0.4 °F -8.3 °F -2.2 °F 92% 29.76 in 7.0 mi North 3.5 mph - N/A   Scattered Clouds
7:54 AM -2.2 °F - -5.8 °F 85% 29.79 in 10.0 mi Calm Calm - N/A   Clear
8:13 AM -4.0 °F - -7.6 °F 85% 29.81 in 7.0 mi Calm Calm - N/A   Clear
8:33 AM -2.2 °F -10.4 °F -5.8 °F 85% 29.83 in 10.0 mi WSW 3.5 mph - N/A   Clear
8:54 AM -0.4 °F - -5.8 °F 78% 29.84 in 5.0 mi Calm Calm - N/A   Clear
9:13 AM -0.4 °F - -4.0 °F 85% 29.85 in 7.0 mi Calm Calm - N/A   Clear
9:34 AM 1.4 °F - -2.2 °F 85% 29.87 in 10.0 mi Calm Calm - N/A   Clear
9:53 AM 5.0 °F -4.1 °F 1.4 °F 85% 29.87 in 10.0 mi NNW 4.6 mph - N/A   Clear
10:13 AM 6.8 °F -3.5 °F 1.4 °F 79% 29.88 in 10.0 mi North 5.8 mph - N/A   Clear
10:34 AM 6.8 °F -2.0 °F 1.4 °F 79% 29.90 in 10.0 mi NNW 4.6 mph - N/A   Clear
10:53 AM 8.6 °F 0.1 °F 1.4 °F 73% 29.91 in 10.0 mi NW 4.6 mph - N/A   Clear
11:13 AM 5.0 °F -4.1 °F -2.2 °F 72% 29.93 in 10.0 mi West 4.6 mph - N/A   Clear
11:34 AM 6.8 °F -2.0 °F -0.4 °F 72% 29.93 in 10.0 mi WSW 4.6 mph - N/A   Clear
11:53 AM 8.6 °F 2.0 °F 1.4 °F 73% 29.92 in 10.0 mi WSW 3.5 mph - N/A   Clear
12:13 PM 8.6 °F -1.3 °F 1.4 °F 73% 29.93 in 10.0 mi WSW 5.8 mph - N/A   Clear
12:34 PM 8.6 °F -2.6 °F 1.4 °F 73% 29.94 in 10.0 mi WSW 6.9 mph - N/A   Scattered Clouds
12:53 PM 8.6 °F - 1.4 °F 73% 29.94 in 10.0 mi Calm Calm - N/A   Mostly Cloudy
1:13 PM 10.4 °F 0.8 °F 3.2 °F 73% 29.93 in 10.0 mi SW 5.8 mph - N/A   Overcast
1:34 PM 12.2 °F 6.1 °F 3.2 °F 67% 29.93 in 10.0 mi WSW 3.5 mph - N/A   Mostly Cloudy
1:53 PM 10.4 °F 0.8 °F 1.4 °F 67% 29.94 in 10.0 mi SW 5.8 mph - N/A   Scattered Clouds
2:13 PM 10.4 °F -2.4 °F 1.4 °F 67% 29.95 in 10.0 mi SW 9.2 mph - N/A   Clear
2:34 PM 10.4 °F 2.2 °F 3.2 °F 73% 29.95 in 10.0 mi SW 4.6 mph - N/A   Clear
2:53 PM 10.4 °F -0.4 °F 1.4 °F 67% 29.96 in 10.0 mi SW 6.9 mph - N/A   Clear
3:13 PM 10.4 °F -0.4 °F 1.4 °F 67% 29.97 in 10.0 mi SW 6.9 mph - N/A   Scattered Clouds
3:34 PM 10.4 °F 0.8 °F 1.4 °F 67% 29.96 in 10.0 mi SW 5.8 mph - N/A   Mostly Cloudy
4:13 PM 10.4 °F 2.2 °F 1.4 °F 67% 29.98 in 10.0 mi SW 4.6 mph - N/A   Overcast
4:34 PM 10.4 °F 0.8 °F 1.4 °F 67% 29.97 in 10.0 mi SW 5.8 mph - N/A   Overcast
4:53 PM 10.4 °F 2.2 °F 1.4 °F 67% 29.97 in 10.0 mi SW 4.6 mph - N/A   Overcast
5:13 PM 10.4 °F - 1.4 °F 67% 29.96 in 10.0 mi Calm Calm - N/A   Overcast
5:34 PM 10.4 °F - 1.4 °F 67% 29.97 in 10.0 mi Calm Calm - N/A   Overcast
5:53 PM 10.4 °F - 1.4 °F 67% 29.98 in 10.0 mi Calm Calm - N/A   Overcast
6:14 PM 8.6 °F - 1.4 °F 73% 29.98 in 10.0 mi Calm Calm - N/A   Overcast
6:34 PM 8.6 °F - 3.2 °F 79% 29.97 in 10.0 mi Calm Calm - N/A   Overcast
7:14 PM 8.6 °F - 1.4 °F 73% 29.97 in 10.0 mi Calm Calm - N/A   Overcast
7:34 PM 8.6 °F - 1.4 °F 73% 29.98 in 10.0 mi Calm Calm - N/A   Overcast
7:53 PM 8.6 °F - 1.4 °F 73% 30.00 in 10.0 mi Calm Calm - N/A   Overcast
8:14 PM 8.6 °F - 1.4 °F 73% 29.99 in 10.0 mi Calm Calm - N/A   Overcast
8:33 PM 8.6 °F - 1.4 °F 73% 29.99 in 10.0 mi Calm Calm - N/A   Overcast
8:53 PM 8.6 °F -1.3 °F 1.4 °F 73% 29.99 in 10.0 mi WSW 5.8 mph - N/A   Overcast
9:14 PM 6.8 °F -0.1 °F 1.4 °F 79% 29.98 in 10.0 mi WSW 3.5 mph - N/A   Overcast
9:33 PM 5.0 °F - -0.4 °F 78% 29.99 in 10.0 mi Calm Calm - N/A   Overcast
9:53 PM 5.0 °F -4.1 °F -0.4 °F 78% 29.99 in 10.0 mi WSW 4.6 mph - N/A   Overcast
10:13 PM 6.8 °F -2.0 °F 1.4 °F 79% 29.99 in 10.0 mi WSW 4.6 mph - N/A   Overcast
10:33 PM 6.8 °F -2.0 °F 1.4 °F 79% 29.99 in 10.0 mi SW 4.6 mph - N/A   Overcast
10:53 PM 6.8 °F -0.1 °F 1.4 °F 79% 30.00 in 10.0 mi WSW 3.5 mph - N/A   Unknown
11:14 PM 6.8 °F -2.0 °F 1.4 °F 79% 30.00 in 10.0 mi WSW 4.6 mph - N/A   Overcast
11:33 PM 6.8 °F -3.5 °F 1.4 °F 79% 30.00 in 10.0 mi SW 5.8 mph - N/A   Overcast
11:53 PM 6.8 °F -2.0 °F 1.4 °F 79% 30.00 in 10.0 mi SW 4.6 mph - N/A   Overcast